Weather History for TGPY - September, 2013

Change the Weather History Date:

Monday, September 30, 2013

  Actual Average Record
Temperature  
Mean Temperature 85 °F -  
Max Temperature 90 °F 85 °F 90 °F (2013)
Min Temperature 80 °F 76 °F 77 °F (1996)
Cooling Degree Days 20    
Growing Degree Days 35 (Base 50)    
Moisture  
Dew Point 77 °F    
Average Humidity 76    
Maximum Humidity 84    
Minimum Humidity 64    
Precipitation  
Precipitation 0.00 in - - ()
Sea Level Pressure  
Sea Level Pressure 29.92 in    
Wind  
Wind Speed 14 mph ()    
Max Wind Speed 25 mph    
Max Gust Speed -    
Visibility 6.6 miles    
Events Thunderstorm    
Averages and records for this station are not official NWS values.
T = Trace of Precipitation, MM = Missing Value Source: Averaged Metar Reports

Daily Weather History Graph

Daily Weather History Graph

Search for Another Location

Airport or City:

Trip Planner

Search our weather history database for the weather conditions in past years. The results will help you decide how hot, cold, wet, or windy it might be!

Date:

Astronomy

Sep. 30, 2013 Rise Set
Actual Time 5:56 AM AST 5:57 PM AST
Civil Twilight 5:35 AM AST 6:18 PM AST
Nautical Twilight 5:10 AM AST 6:43 PM AST
Astronomical Twilight 4:45 AM AST 7:07 PM AST
Moon 2:08 AM AST (9/30) 2:50 PM AST (9/30)
Length of Visible Light 12h 43m
Length of Day
12h 01m
Waning Crescent, 19% of the Moon is Illuminated
Sep 30
Waning Crescent
Oct 4
New
Oct 11
First Quarter
Oct 18
Full
Oct 26
Last Quarter

Hourly Weather History & Observations

Time (AST) Temp. Heat Index Dew Point Humidity Pressure Visibility Wind Dir Wind Speed Gust Speed Precip Events Conditions
12:00 AM 84.2 °F 96.1 °F 78.8 °F 84% 29.95 in 6.2 mi ESE 16.1 mph - N/A Thunderstorm Partly Cloudy
1:00 AM 84.2 °F 94.1 °F 77.0 °F 79% 29.92 in 6.2 mi East 18.4 mph - N/A   Scattered Clouds
2:00 AM 83 °F - 76 °F 74% 29.92 in 12 mi East 13.8 mph - -   Widespread Dust
2:00 AM 84.2 °F 92.3 °F 75.2 °F 74% 29.92 in 6.2 mi East 13.8 mph - N/A   Partly Cloudy
3:00 AM 82.4 °F 89.5 °F 75.2 °F 79% 29.92 in 6.2 mi East 10.4 mph - N/A   Partly Cloudy
4:00 AM 80.6 °F 86.2 °F 75.2 °F 84% 29.92 in 6.2 mi ESE 16.1 mph - N/A Thunderstorm Partly Cloudy
5:00 AM 81 °F - 76 °F 80% 29.91 in 9 mi East 8.1 mph - -   Scattered Clouds
5:00 AM 80.6 °F 86.2 °F 75.2 °F 84% 29.92 in 6.2 mi East 8.1 mph - N/A Thunderstorm Mostly Cloudy
6:00 AM 82.4 °F 90.9 °F 77.0 °F 84% 0.00 in 6.2 mi East 6.9 mph - N/A   Partly Cloudy
7:00 AM 84.2 °F 94.1 °F 77.0 °F 79% 29.95 in 6.2 mi East 8.1 mph - N/A   Scattered Clouds
8:00 AM 84 °F - 77 °F 73% 29.96 in 7 mi East 16.1 mph - -   Widespread Dust
8:00 AM 84.2 °F 94.1 °F 77.0 °F 79% 29.95 in 6.2 mi East 16.1 mph - N/A   Scattered Clouds
9:00 AM 87.8 °F 102.5 °F 78.8 °F 75% 29.95 in 6.2 mi East 21.9 mph - N/A   Mostly Cloudy
10:00 AM 87.8 °F 99.7 °F 77.0 °F 70% 29.98 in 6.2 mi ESE 23.0 mph - N/A   Mostly Cloudy
11:00 AM 86.0 °F 96.9 °F 77.0 °F 74% 29.95 in 6.2 mi East 23.0 mph - N/A   Mostly Cloudy
12:00 PM 87.8 °F 99.7 °F 77.0 °F 70% 29.95 in 6.2 mi ESE 21.9 mph - N/A   Mostly Cloudy
1:00 PM 89.6 °F 104.7 °F 78.8 °F 70% 29.92 in 6.2 mi East 25.3 mph - N/A   Mostly Cloudy
2:00 PM 89 °F - 78 °F 64% 29.89 in 7 mi East 20.7 mph - -   Scattered Clouds
2:00 PM 89.6 °F 104.7 °F 78.8 °F 70% 29.89 in 6.2 mi East 20.7 mph - N/A   Mostly Cloudy
3:00 PM 87.8 °F 102.5 °F 78.8 °F 75% 29.86 in 6.2 mi ESE 19.6 mph - N/A   Mostly Cloudy
4:00 PM 87.8 °F 99.7 °F 77.0 °F 70% 29.86 in 6.2 mi East 18.4 mph - N/A   Mostly Cloudy
5:00 PM 87 °F - 77 °F 66% 29.88 in 7 mi ESE 16.1 mph - -   Widespread Dust
5:00 PM 87.8 °F 104.9 °F 80.6 °F 79% 29.89 in 6.2 mi ESE 16.1 mph - N/A   Scattered Clouds
6:00 PM 84.2 °F 94.1 °F 77.0 °F 79% 29.89 in 6.2 mi East 16.1 mph - N/A   Partly Cloudy
7:00 PM 84.2 °F 94.1 °F 77.0 °F 79% 29.92 in - East 11.5 mph - N/A   Partly Cloudy
8:00 PM 84 °F - 76 °F 70% 29.93 in 7 mi East 13.8 mph - -   Widespread Dust
8:00 PM 84.2 °F 92.3 °F 75.2 °F 74% 29.92 in 6.2 mi East 13.8 mph - N/A   Scattered Clouds
9:00 PM 84.2 °F 92.3 °F 75.2 °F 74% 29.95 in 6.2 mi East 13.8 mph - N/A   Partly Cloudy
10:00 PM 84.2 °F 94.1 °F 77.0 °F 79% 29.92 in 6.2 mi East 13.8 mph - N/A   Scattered Clouds
11:00 PM 83 °F - 76 °F 75% 29.94 in 7 mi East 11.5 mph - -   Widespread Dust
11:00 PM 82.4 °F 90.9 °F 77.0 °F 84% 29.92 in 6.2 mi East 11.5 mph - N/A   Partly Cloudy